Location: Treviso
(45.6669°N, 12.2430°E)
Time: 08:56:43
(UTC+02:00)

ITUPSAT 1 - Visible Passes

Search period start: 24 April 2019 00:00
Search period end: 04 May 2019 00:00
Orbit: 702 x 713 km, 98.6° (Epoch: 23 April)

Date Brightness Start Highest point End Pass type
(mag) Time Alt. Az. Time Alt. Az. Time Alt. Az.
24 Apr ? 04:50:12 10° SSE 04:54:54 66° ENE 04:59:40 10° N visible
25 Apr ? 03:58:07 10° ESE 04:01:47 22° ENE 04:05:27 10° NNE visible
25 Apr ? 05:34:41 10° S 05:39:16 48° W 05:43:55 10° NNW visible
26 Apr ? 04:41:11 10° SSE 04:45:48 53° ENE 04:50:28 10° N visible
27 Apr ? 03:49:28 10° ESE 03:52:45 19° ENE 03:56:03 10° NNE visible
27 Apr ? 05:25:25 10° S 05:30:06 59° WSW 05:34:51 10° NNW visible
28 Apr ? 04:32:13 10° SE 04:36:42 44° ENE 04:41:15 10° N visible
29 Apr ? 03:40:55 10° E 03:43:44 16° ENE 03:46:34 10° NNE visible
29 Apr ? 05:16:12 10° S 05:20:57 73° WSW 05:25:45 10° NNW visible
30 Apr ? 04:23:18 10° SE 04:27:38 36° ENE 04:32:00 10° N visible
01 May ? 03:32:31 10° E 03:34:44 13° ENE 03:36:57 10° NNE visible
01 May ? 05:07:03 10° SSE 05:11:49 89° WSW 05:16:39 10° NNW visible
02 May ? 04:14:26 10° SE 04:18:34 30° ENE 04:22:44 10° N visible
03 May ? 03:24:29 10° ENE 03:25:45 11° NE 03:27:00 10° NE visible
03 May ? 04:57:57 10° SSE 05:02:42 75° ENE 05:07:30 10° N visible
